(245865) = 2006 PR15

Discovered at Palomar on 2006-08-15 by NEAT.

Orbit

Orbit type: Main Belt

Note: WebGL enabled browser required.

epoch2023-02-25.0
epoch JD2460000.5
perihelion date2020-08-29.94869
perihelion JD2459091.44869
argument of perihelion (°)232.04679
ascending node (°)119.32984
inclination (°)8.49766
eccentricity0.2127203
perihelion distance (AU)2.1824117
Tisserand w.r.t. Jupiter3.3
ΔV w.r.t. Earth (km/sec)9.7
semimajor axis (AU)2.7720918
mean anomaly (°)194.12472
mean daily motion (°/day)0.21354650
aphelion distance (AU)3.362
period (years)4.62
P-vector [x]0.98114857
P-vector [y]-0.09510805
P-vector [z]-0.16823180
Q-vector [x]0.14405224
Q-vector [y]0.94022610
Q-vector [z]0.30858358
absolute magnitude16.27
phase slope0.15
uncertainty0
referenceMPO 745323
observations used472
oppositions16
arc length (days)7451
first opposition used2002
last opposition used2023
residual rms (arc-secs)0.83
perturbers coarse indicatorM-v
perturbers precise indicator003Ek
first observation date used2002-12-03.0
last observation date used2023-04-28.0
computer nameMPCLINUX
JD of orbit computation2456789.333102
perihelion JD uncertainty (days)8.6626E-05
argument of perihelion uncertainty (°)5.0668E-05
ascending node uncertainty (°)4.8655E-05
inclination uncertainty (°)5.4976E-06
eccentricity uncertainty 5.4312E-08
perihelion distance uncertainty (AU)1.4942E-07
Minimum Orbit Intersection Distances (in AU)
for orbit epoch: 2460000.5, reference: E2023-HO4
Mercury1.80159
Venus1.45704
Earth1.18639
Mars0.81198
Jupiter2.08493
Saturn5.98999
Uranus15.1013
Neptune27.2214

Observations

480 total observations over interval: 2002 12 03.25687 – 2023 04 28.207850
These data are available for download (format description).

Date (UT) J2000 RA J2000 Dec Magn Location Ref
2002 12 03.25687 04 39 22.99 +11 28 21.4 19.9   644 – Palomar Mountain/NEAT MPS 233420
2002 12 03.32014 04 39 19.15 +11 28 24.2 19.7   644 – Palomar Mountain/NEAT MPS 233420
2002 12 03.38757 04 39 15.07 +11 28 27.6 20.2   644 – Palomar Mountain/NEAT MPS 233420
2004 02 16.36774 10 25 13.50 +16 33 50.9 22.0 V 691 – Steward Observatory, Kitt Peak-Spacewatch MPS 233420
2004 02 16.39489 10 25 12.14 +16 34 01.7 21.6 V 691 – Steward Observatory, Kitt Peak-Spacewatch MPS 233420
2004 02 16.42265 10 25 10.76 +16 34 12.5 21.5 V 691 – Steward Observatory, Kitt Peak-Spacewatch MPS 233420
2006 08 15.36519 22 09 23.35 -18 38 31.5 18.5 R 644 – Palomar Mountain/NEAT MPS 176106
2006 08 15.38732 22 09 22.38 -18 38 43.6 18.8 R 644 – Palomar Mountain/NEAT MPS 176106
2006 08 15.40835 22 09 21.46 -18 38 55.2 18.7 R 644 – Palomar Mountain/NEAT MPS 176106
2006 08 16.63520 22 08 30.22 -18 50 08.0 18.7 V E12 – Siding Spring Survey MPS 176106
2006 08 16.65098 22 08 29.54 -18 50 16.9 18.6 V E12 – Siding Spring Survey MPS 176106
2006 08 16.66683 22 08 28.82 -18 50 25.8 18.7 V E12 – Siding Spring Survey MPS 176106
2006 08 16.68272 22 08 28.10 -18 50 33.9 18.8 V E12 – Siding Spring Survey MPS 176106
2006 08 23.19543 22 03 46.23 -19 49 03.8 18.5   704 – Lincoln Laboratory ETS, New Mexico MPS 176106
2006 08 23.20631 22 03 45.72 -19 49 09.6 18.8   704 – Lincoln Laboratory ETS, New Mexico MPS 176106
2006 08 23.23992 22 03 44.15 -19 49 27.1 18.9   704 – Lincoln Laboratory ETS, New Mexico MPS 176106
2006 08 28.19209 22 00 07.97 -20 30 33.5 18.8 C 704 – Lincoln Laboratory ETS, New Mexico MPS 293216
2006 08 28.20320 22 00 07.40 -20 30 38.3 18.7 C 704 – Lincoln Laboratory ETS, New Mexico MPS 293216
2006 08 28.21437 22 00 06.93 -20 30 41.9 19.2 C 704 – Lincoln Laboratory ETS, New Mexico MPS 293216
2006 08 28.22548 22 00 06.45 -20 30 49.5 18.8 C 704 – Lincoln Laboratory ETS, New Mexico MPS 293216
2006 08 28.23666 22 00 05.79 -20 30 54.8 18.7 C 704 – Lincoln Laboratory ETS, New Mexico MPS 293216
2006 09 14.19457 21 49 50.63 -22 15 58.6 18.4 R 644 – Palomar Mountain/NEAT MPS 179388
2006 09 14.25713 21 49 48.82 -22 16 14.7 18.4 R 644 – Palomar Mountain/NEAT MPS 179388
2006 09 14.32036 21 49 47.00 -22 16 30.7 18.6 R 644 – Palomar Mountain/NEAT MPS 179388
2007 12 06.40912 07 43 14.99 +17 33 21.0 21.2 V 691 – Steward Observatory, Kitt Peak-Spacewatch MPS 233420
2007 12 06.42676 07 43 14.45 +17 33 24.0 21.2 V 691 – Steward Observatory, Kitt Peak-Spacewatch MPS 233420
2007 12 06.44440 07 43 13.91 +17 33 26.4 20.7 V 691 – Steward Observatory, Kitt Peak-Spacewatch MPS 233420
2008 01 09.24544 07 15 50.43 +19 41 49.6 19.5 R G92 – Jarnac Observatory, Vail MPS 233420
2008 01 09.25977 07 15 49.52 +19 41 53.1 19.7 R G92 – Jarnac Observatory, Vail MPS 233420
2008 01 09.27404 07 15 48.73 +19 41 58.9 19.3 R G92 – Jarnac Observatory, Vail MPS 233420
2008 01 10.20769 07 14 54.21 +19 46 00.0 19.5 R G92 – Jarnac Observatory, Vail MPS 233420
2008 01 10.22376 07 14 53.21 +19 46 04.4 19.5 R G92 – Jarnac Observatory, Vail MPS 233420
2008 01 10.23983 07 14 52.28 +19 46 08.7 20.0 R G92 – Jarnac Observatory, Vail MPS 233420
2008 02 08.09841 06 51 50.06 +21 37 59.4 21.1 V 691 – Steward Observatory, Kitt Peak-Spacewatch MPS 236289
2008 02 08.11158 06 51 49.65 +21 38 02.5 20.9 V 691 – Steward Observatory, Kitt Peak-Spacewatch MPS 236289
2008 02 08.12476 06 51 49.26 +21 38 03.8 20.7 V 691 – Steward Observatory, Kitt Peak-Spacewatch MPS 236289
2008 02 11.09493 06 50 23.93 +21 47 23.6   691 – Steward Observatory, Kitt Peak-Spacewatch MPS 237575
2008 02 11.11916 06 50 23.23 +21 47 28.0   691 – Steward Observatory, Kitt Peak-Spacewatch MPS 237575
2008 02 11.14078 06 50 22.66 +21 47 32.5   691 – Steward Observatory, Kitt Peak-Spacewatch MPS 237575
2009 03 31.27536 11 43 46.20 +12 40 40.6 20.7 V G96 – Mt. Lemmon Survey MPS 282571
2009 03 31.28510 11 43 45.76 +12 40 43.6 21.5 V G96 – Mt. Lemmon Survey MPS 282571
2009 03 31.29485 11 43 45.30 +12 40 45.8 20.8 V G96 – Mt. Lemmon Survey MPS 282571
2009 03 31.30463 11 43 44.86 +12 40 48.6 21.1 V G96 – Mt. Lemmon Survey MPS 282571
2010 02 26.175237 16 30 56.37 -13 17 50.8   C51 – WISE MPS 371364
2010 02 26.175365 16 30 56.34 -13 17 51.4   C51 – WISE MPS 334949
2010 02 26.43997 16 31 09.42 -13 17 50.9   C51 – WISE MPS 334949
2010 02 26.50606 16 31 12.82 -13 17 48.8   C51 – WISE MPS 334949
2010 02 26.506189 16 31 12.84 -13 17 47.8   C51 – WISE MPS 334949
2010 02 26.572277 16 31 15.94 -13 17 49.7   C51 – WISE MPS 334949
2010 02 26.770796 16 31 25.738 -13 17 46.39   C51 – WISE MPS 903727
2010 02 26.903101 16 31 32.16 -13 17 43.2   C51 – WISE MPS 371364
2010 06 03.18473 16 17 05.82 -10 41 05.9   691 – Steward Observatory, Kitt Peak-Spacewatch MPS 329184
2010 06 03.20238 16 17 04.87 -10 41 05.8   691 – Steward Observatory, Kitt Peak-Spacewatch MPS 329184
2010 06 03.22004 16 17 03.86 -10 41 05.3   691 – Steward Observatory, Kitt Peak-Spacewatch MPS 329184
2010 06 04.448103 16 15 56.552 -10 40 45.52 19.96 i F51 – Pan-STARRS 1, Haleakala MPS 337363
2010 06 04.460367 16 15 55.859 -10 40 45.29 20.03 i F51 – Pan-STARRS 1, Haleakala MPS 337363
2010 06 07.17267 16 13 29.38 -10 40 34.2   691 – Steward Observatory, Kitt Peak-Spacewatch MPS 330805
2010 06 07.19036 16 13 28.42 -10 40 34.6   691 – Steward Observatory, Kitt Peak-Spacewatch MPS 330805
2010 06 07.20803 16 13 27.50 -10 40 32.6   691 – Steward Observatory, Kitt Peak-Spacewatch MPS 330805
2010 06 07.379464 16 13 18.190 -10 40 34.74 19.98 r F51 – Pan-STARRS 1, Haleakala MPS 337363
2010 06 07.390947 16 13 17.561 -10 40 34.81 20.21 r F51 – Pan-STARRS 1, Haleakala MPS 337363
2010 06 17.22124 16 05 01.10 -10 46 31.8 20.0 V G96 – Mt. Lemmon Survey MPS 331932
2010 06 17.22789 16 05 00.78 -10 46 32.3 19.8 V G96 – Mt. Lemmon Survey MPS 331932
2010 06 17.24121 16 05 00.13 -10 46 33.2 20.0 V G96 – Mt. Lemmon Survey MPS 331932
2011 08 30.62728 02 53 27.330 +04 32 38.44 20.0 z F51 – Pan-STARRS 1, Haleakala MPS 391020
2011 08 30.63393 02 53 27.584 +04 32 37.53 20.0 z F51 – Pan-STARRS 1, Haleakala MPS 391020
2011 10 23.33215 02 44 55.74 +00 25 20.0 19.0   704 – Lincoln Laboratory ETS, New Mexico MPS 397995
2011 10 23.34408 02 44 55.12 +00 25 15.7 19.2   704 – Lincoln Laboratory ETS, New Mexico MPS 397995
2011 10 23.35679 02 44 54.43 +00 25 13.2 19.5   704 – Lincoln Laboratory ETS, New Mexico MPS 397995
2011 10 23.36879 02 44 53.77 +00 25 10.5 19.5   704 – Lincoln Laboratory ETS, New Mexico MPS 397995
2011 10 23.38079 02 44 53.15 +00 25 06.5 19.6   704 – Lincoln Laboratory ETS, New Mexico MPS 397995
2011 10 28.25019 02 40 46.23 +00 05 59.7 18.9   704 – Lincoln Laboratory ETS, New Mexico MPS 399835
2011 10 28.25051 02 40 46.27 +00 06 00.7 18.6   704 – Lincoln Laboratory ETS, New Mexico MPS 399835
2011 10 28.26238 02 40 45.64 +00 05 56.6 19.3   704 – Lincoln Laboratory ETS, New Mexico MPS 399835
2011 10 28.27454 02 40 44.96 +00 05 55.1 19.4   704 – Lincoln Laboratory ETS, New Mexico MPS 399835
2011 10 28.27486 02 40 44.93 +00 05 54.6 19.3   704 – Lincoln Laboratory ETS, New Mexico MPS 399835
2011 10 28.28652 02 40 44.41 +00 05 51.4 19.5   704 – Lincoln Laboratory ETS, New Mexico MPS 399835
2011 10 28.28684 02 40 44.33 +00 05 51.1 19.4   704 – Lincoln Laboratory ETS, New Mexico MPS 399835
2011 10 28.29850 02 40 43.66 +00 05 49.1 19.3   704 – Lincoln Laboratory ETS, New Mexico MPS 399835
2011 10 28.29883 02 40 43.66 +00 05 48.2 19.4   704 – Lincoln Laboratory ETS, New Mexico MPS 399835
2011 10 29.36361 02 39 48.471 +00 02 10.13 19.1 r F51 – Pan-STARRS 1, Haleakala MPS 399835
2011 10 29.37464 02 39 47.869 +00 02 07.88 19.1 r F51 – Pan-STARRS 1, Haleakala MPS 399835
2011 10 29.38782 02 39 47.147 +00 02 05.26 19.4 g F51 – Pan-STARRS 1, Haleakala MPS 399835
2011 10 29.39944 02 39 46.513 +00 02 02.93 19.4 g F51 – Pan-STARRS 1, Haleakala MPS 399835
2011 10 31.37384 02 38 03.01 -00 04 14.1 19.1 V G96 – Mt. Lemmon Survey MPS 399836
2011 10 31.38007 02 38 02.68 -00 04 15.2 19.0 V G96 – Mt. Lemmon Survey MPS 399836
2011 10 31.38637 02 38 02.36 -00 04 16.4 19.1 V G96 – Mt. Lemmon Survey MPS 399836
2011 10 31.39281 02 38 02.00 -00 04 17.6 19.0 V G96 – Mt. Lemmon Survey MPS 399836
2011 11 16.29456 02 24 52.70 -00 26 03.5 19.1 V 703 – Catalina Sky Survey MPS 402210
